Wolf Creek Pass, CO

6:10 PM MDT on September 20, 2017 (GMT -0600)
Wolf Creek Pass

Weather History for KCPW - November, 2012

Change the Weather History Date:

Monday, November 19, 2012

  Actual Average (KALS) Record (KALS)
Temperature  
Mean Temperature 26 °F -  
Max Temperature 33 °F 43 °F 68 °F (2007)
Min Temperature 19 °F 10 °F -15 °F (1957)
Degree Days  
Heating Degree Days 39    
Moisture  
Dew Point 18 °F    
Average Humidity 80    
Maximum Humidity 100    
Minimum Humidity 51    
Precipitation  
Precipitation 0.00 in - - ()
Sea Level Pressure  
Sea Level Pressure 30.43 in    
Wind  
Wind Speed 14 mph (SW)    
Max Wind Speed 22 mph    
Max Gust Speed 28 mph    
Visibility 10 miles    
Events      
Averages and records for this station are not official NWS values.
T = Trace of Precipitation, MM = Missing Value Source: NWS Daily Summary

Daily Weather History Graph

Daily Weather History Graph

Search for Another Location

Airport or City:

Trip Planner

Search our weather history database for the weather conditions in past years. The results will help you decide how hot, cold, wet, or windy it might be!

Date:

Astronomy

Nov. 19, 2012 Rise Set
Actual Time 6:51 AM MST 4:53 PM MST
Civil Twilight 6:23 AM MST 5:21 PM MST
Nautical Twilight 5:51 AM MST 5:53 PM MST
Astronomical Twilight 5:20 AM MST 6:24 PM MST
Moon 11:58 AM MST (11/19) 11:20 PM MST (11/19)
Length of Visible Light 10h 58m
Length of Day
10h 02m
Waxing Crescent, 41% of the Moon is Illuminated
Nov 19
Waxing Crescent
Nov 20
First Quarter
Nov 28
Full
Dec 6
Last Quarter
Dec 13
New

Hourly Weather History & Observations

Time (MST) Temp. Windchill Dew Point Humidity Pressure Visibility Wind Dir Wind Speed Gust Speed Precip Events Conditions
12:01 AM 21.2 °F 5.6 °F 19.4 °F 93% 30.36 in 10.0 mi SW 20.7 mph 26.5 mph N/A   Clear
12:21 AM 21.2 °F 6.4 °F 19.4 °F 93% 30.35 in 10.0 mi SW 18.4 mph 25.3 mph N/A   Clear
12:41 AM 19.4 °F 4.1 °F 19.4 °F 100% 30.35 in 10.0 mi SW 18.4 mph 23.0 mph N/A   Clear
1:01 AM 19.4 °F 4.1 °F 19.4 °F 100% 30.35 in 10.0 mi SW 18.4 mph 23.0 mph N/A   Clear
1:21 AM 19.4 °F 3.6 °F 19.4 °F 100% 30.35 in 10.0 mi SW 19.6 mph - N/A   Clear
1:41 AM 19.4 °F 4.5 °F 17.6 °F 93% 30.35 in 10.0 mi SW 17.3 mph 21.9 mph N/A   Clear
2:01 AM 19.4 °F 2.8 °F 17.6 °F 93% 30.35 in 10.0 mi SW 21.9 mph 27.6 mph N/A   Clear
2:21 AM 19.4 °F 3.2 °F 17.6 °F 93% 30.36 in 10.0 mi SW 20.7 mph 26.5 mph N/A   Clear
2:41 AM 19.4 °F 4.1 °F 17.6 °F 93% 30.37 in 10.0 mi SW 18.4 mph 25.3 mph N/A   Clear
3:01 AM 19.4 °F 7.9 °F 17.6 °F 93% 30.37 in 10.0 mi SW 10.4 mph 24.2 mph N/A   Clear
3:21 AM 19.4 °F 8.6 °F 17.6 °F 93% 30.38 in 10.0 mi SW 9.2 mph - N/A   Clear
3:41 AM 19.4 °F 7.2 °F 17.6 °F 93% 30.37 in 10.0 mi SW 11.5 mph - N/A   Scattered Clouds
4:01 AM 19.4 °F 5.5 °F 19.4 °F 100% 30.37 in 10.0 mi SW 15.0 mph - N/A   Clear
4:21 AM 19.4 °F 5.5 °F 19.4 °F 100% 30.37 in 10.0 mi SW 15.0 mph - N/A   Clear
4:41 AM 19.4 °F 6.6 °F 17.6 °F 93% 30.37 in 10.0 mi SW 12.7 mph - N/A   Clear
5:01 AM 19.4 °F 6.6 °F 17.6 °F 93% 30.37 in 10.0 mi SW 12.7 mph - N/A   Clear
5:21 AM 19.4 °F 7.2 °F 17.6 °F 93% 30.37 in 10.0 mi SW 11.5 mph - N/A   Clear
5:41 AM 19.4 °F 8.6 °F 17.6 °F 93% 30.38 in 10.0 mi SW 9.2 mph - N/A   Clear
6:01 AM 19.4 °F 7.9 °F 17.6 °F 93% 30.38 in 10.0 mi SW 10.4 mph - N/A   Clear
6:41 AM 19.4 °F 8.6 °F 17.6 °F 93% 30.39 in 10.0 mi SW 9.2 mph - N/A   Clear
7:01 AM 19.4 °F 6.6 °F 17.6 °F 93% 30.40 in 10.0 mi SSW 12.7 mph - N/A   Clear
7:21 AM 19.4 °F 7.2 °F 17.6 °F 93% 30.40 in 10.0 mi SSW 11.5 mph - N/A   Clear
7:41 AM 19.4 °F 10.4 °F 19.4 °F 100% 30.41 in 10.0 mi SSW 6.9 mph - N/A   Clear
8:01 AM 21.2 °F 11.7 °F 19.4 °F 93% 30.42 in 10.0 mi SSW 8.1 mph - N/A   Clear
8:21 AM 21.2 °F 10.1 °F 19.4 °F 93% 30.42 in 10.0 mi SW 10.4 mph - N/A   Clear
8:41 AM 23.0 °F 14.7 °F 19.4 °F 86% 30.43 in 10.0 mi SW 6.9 mph - N/A   Clear
9:01 AM 23.0 °F 13.9 °F 19.4 °F 86% 30.43 in 10.0 mi SSW 8.1 mph - N/A   Clear
9:21 AM 24.8 °F 16.1 °F 19.4 °F 80% 30.44 in 10.0 mi SSW 8.1 mph - N/A   Clear
9:41 AM 26.6 °F 18.2 °F 19.4 °F 74% 30.44 in 10.0 mi SSW 8.1 mph - N/A   Clear
10:01 AM 26.6 °F 20.0 °F 17.6 °F 69% 30.45 in 10.0 mi South 5.8 mph - N/A   Clear
10:21 AM 28.4 °F 20.4 °F 17.6 °F 64% 30.45 in 10.0 mi SW 8.1 mph - N/A   Clear
10:41 AM 30.2 °F 21.3 °F 17.6 °F 60% 30.45 in 10.0 mi SW 10.4 mph - N/A   Clear
11:01 AM 30.2 °F 20.8 °F 15.8 °F 55% 30.45 in 10.0 mi SSW 11.5 mph - N/A   Clear
11:21 AM 30.2 °F 21.9 °F 14.0 °F 51% 30.45 in 10.0 mi SW 9.2 mph - N/A   Clear
11:41 AM 30.2 °F 21.9 °F 15.8 °F 55% 30.45 in 10.0 mi SSW 9.2 mph - N/A   Clear
12:01 PM 30.2 °F 20.2 °F 15.8 °F 55% 30.44 in 10.0 mi SW 12.7 mph - N/A   Clear
12:21 PM 32.0 °F 25.6 °F 17.6 °F 55% 30.44 in 10.0 mi SSW 6.9 mph 16.1 mph N/A   Clear
12:41 PM 32.0 °F 24.2 °F 17.6 °F 55% 30.44 in 10.0 mi SW 9.2 mph - N/A   Clear
1:01 PM 32.0 °F 22.5 °F 17.6 °F 55% 30.43 in 10.0 mi SSW 12.7 mph 17.3 mph N/A   Clear
1:21 PM 32.0 °F 24.2 °F 15.8 °F 51% 30.43 in 10.0 mi SSW 9.2 mph 16.1 mph N/A   Clear
1:41 PM 33.8 °F 25.8 °F 17.6 °F 52% 30.43 in 10.0 mi WSW 10.4 mph 19.6 mph N/A   Clear
2:01 PM 33.8 °F 27.0 °F 17.6 °F 52% 30.43 in 10.0 mi SW 8.1 mph 16.1 mph N/A   Clear
2:21 PM 32.0 °F 24.2 °F 17.6 °F 55% 30.43 in 10.0 mi WSW 9.2 mph - N/A   Clear
2:41 PM 33.8 °F 27.0 °F 17.6 °F 52% 30.43 in 10.0 mi West 8.1 mph - N/A   Clear
3:01 PM 32.0 °F 23.0 °F 17.6 °F 55% 30.43 in 10.0 mi WSW 11.5 mph 16.1 mph N/A   Clear
3:21 PM 32.0 °F 23.0 °F 17.6 °F 55% 30.44 in 10.0 mi WSW 11.5 mph 17.3 mph N/A   Clear
3:41 PM 32.0 °F 24.8 °F 17.6 °F 55% 30.45 in 10.0 mi WSW 8.1 mph 17.3 mph N/A   Clear
4:01 PM 32.0 °F 22.5 °F 17.6 °F 55% 30.45 in 10.0 mi SSW 12.7 mph 17.3 mph N/A   Clear
4:21 PM 30.2 °F 18.9 °F 17.6 °F 60% 30.45 in 10.0 mi SW 16.1 mph 23.0 mph N/A   Clear
4:41 PM 28.4 °F 17.0 °F 17.6 °F 64% 30.46 in 10.0 mi SW 15.0 mph - N/A   Clear
5:01 PM 28.4 °F 16.2 °F 17.6 °F 64% 30.46 in 10.0 mi WSW 17.3 mph - N/A   Clear
5:21 PM 26.6 °F 14.7 °F 19.4 °F 74% 30.47 in 10.0 mi SW 15.0 mph - N/A   Clear
5:41 PM 26.6 °F 14.7 °F 19.4 °F 74% 30.47 in 10.0 mi SW 15.0 mph - N/A   Clear
6:01 PM 24.8 °F 11.9 °F 19.4 °F 80% 30.47 in 10.0 mi SW 16.1 mph 20.7 mph N/A   Clear
6:21 PM 24.8 °F 11.5 °F 19.4 °F 80% 30.47 in 10.0 mi SW 17.3 mph - N/A   Clear
6:41 PM 24.8 °F 11.5 °F 19.4 °F 80% 30.47 in 10.0 mi SW 17.3 mph - N/A   Clear
7:01 PM 23.0 °F 9.2 °F 19.4 °F 86% 30.47 in 10.0 mi SW 17.3 mph - N/A   Clear
7:21 PM 23.0 °F 9.6 °F 19.4 °F 86% 30.47 in 10.0 mi SW 16.1 mph - N/A   Clear
7:41 PM 23.0 °F 8.7 °F 21.2 °F 93% 30.47 in 10.0 mi SW 18.4 mph - N/A   Clear
8:01 PM 23.0 °F 10.6 °F 21.2 °F 93% 30.47 in 10.0 mi SW 13.8 mph - N/A   Clear
8:21 PM 23.0 °F 11.1 °F 21.2 °F 93% 30.47 in 10.0 mi SSW 12.7 mph 18.4 mph N/A   Clear
8:41 PM 23.0 °F 12.4 °F 21.2 °F 93% 30.48 in 10.0 mi SSW 10.4 mph - N/A   Clear
9:01 PM 23.0 °F 11.7 °F 21.2 °F 93% 30.48 in 10.0 mi SSW 11.5 mph - N/A   Clear
9:21 PM 23.0 °F 11.1 °F 19.4 °F 86% 30.48 in 10.0 mi SW 12.7 mph - N/A   Clear
9:41 PM 21.2 °F 10.1 °F 19.4 °F 93% 30.48 in 10.0 mi SW 10.4 mph - N/A   Clear
10:01 PM 23.0 °F 10.1 °F 19.4 °F 86% 30.47 in 10.0 mi SW 15.0 mph - N/A   Clear
10:21 PM 23.0 °F 9.6 °F 19.4 °F 86% 30.47 in 10.0 mi SW 16.1 mph - N/A   Clear
10:41 PM 23.0 °F 8.0 °F 21.2 °F 93% 30.47 in 10.0 mi SW 20.7 mph - N/A   Clear
11:01 PM 23.0 °F 8.0 °F 19.4 °F 86% 30.47 in 10.0 mi WSW 20.7 mph - N/A   Clear
11:21 PM 23.0 °F 8.3 °F 19.4 °F 86% 30.47 in 10.0 mi WSW 19.6 mph - N/A   Clear
11:41 PM 23.0 °F 9.2 °F 19.4 °F 86% 30.47 in 10.0 mi SW 17.3 mph - N/A   Clear